GFSSW_sfc_dewp_000.txt.gz
Dewpoint
58 58 58 58 58 58 59 58 59 59 60 60 59 59 60 59 58 52 35 41 50 71 70 44 37 42 42 44 45 49 40 31 32 34 38 41 41 42 44 47 49 52 55 58 59
57 57 57 57 58 58 58 59 58 58 58 59 58 58 59 58 49 37 50 69 71 71 39 29 31 32 37 38 34 30 30 30 31 33 48 51 44 45 46 48 49 49 56 58 59
56 56 56 56 57 57 57 58 58 57 58 58 58 58 58 56 43 27 62 69 72 67 30 28 29 32 35 33 28 27 24 27 34 36 49 47 51 57 59 49 50 53 56 58 59
55 55 56 55 56 56 56 57 57 57 58 57 57 58 58 51 27 36 71 71 73 39 32 32 25 31 34 26 24 26 32 31 30 41 39 36 45 50 55 57 54 54 56 58 58
55 56 56 56 55 56 56 56 56 56 58 58 58 57 53 38 30 46 70 68 39 33 29 29 21 33 30 22 20 29 32 32 37 38 36 41 46 52 49 54 53 53 56 57 57
55 56 56 56 56 56 56 56 55 56 58 58 57 56 46 32 25 40 29 31 24 28 28 25 23 32 26 21 22 31 32 31 33 32 37 41 46 50 53 54 53 54 55 56 56
55 55 55 56 55 55 55 55 55 56 58 57 57 51 43 26 26 32 27 21 22 25 24 20 25 30 25 20 31 31 31 32 31 37 38 38 45 50 54 55 55 55 56 56 56
55 55 55 55 55 55 55 55 55 57 58 57 57 50 41 33 28 31 27 19 13 18 19 18 32 26 23 23 26 29 31 29 35 40 39 41 45 52 53 55 55 56 56 57 59
54 55 55 55 55 55 54 54 55 59 58 58 55 49 40 43 26 33 28 14 10 16 18 21 32 25 21 21 29 29 28 32 36 40 38 39 44 50 51 52 53 55 55 57 58
54 54 54 54 54 54 53 54 56 59 58 53 49 45 44 36 22 29 27 12 17 16 18 30 29 23 20 22 26 27 29 33 35 36 40 40 42 47 47 49 51 52 54 56 57
54 53 54 54 53 53 50 36 51 54 51 42 33 27 27 33 27 22 22 11 12 15 24 31 24 19 18 23 25 27 27 33 33 41 42 40 40 44 43 46 50 51 53 53 53
53 53 53 53 53 52 50 31 36 33 35 33 35 33 29 22 22 17 16 14 14 17 23 24 20 19 19 21 20 20 23 24 29 33 35 43 43 44 42 43 47 50 52 52 53
53 53 53 53 52 49 37 37 33 32 34 31 28 24 28 24 22 17 15 14 13 19 21 21 19 19 17 16 17 19 17 20 27 30 30 33 41 45 44 44 45 46 51 51 52
53 53 53 51 42 32 27 32 36 34 31 24 22 24 24 25 22 15 17 16 15 18 19 19 19 18 18 15 15 17 16 16 17 25 25 33 29 46 44 42 44 45 47 48 51
53 53 52 51 42 30 22 24 28 34 24 16 15 20 22 25 20 13 16 13 16 17 17 15 15 16 18 17 16 16 16 15 16 18 20 24 28 41 43 42 42 43 44 46 49
52 52 51 40 44 40 37 31 30 32 20 15 17 16 20 22 18 16 15 13 15 15 15 14 12 10 11 13 15 15 23 20 18 18 20 23 28 37 46 48 43 44 44 47 47
51 50 49 44 26 17 25 29 28 28 21 15 15 15 18 20 15 16 16 14 14 18 16 13 11 14 14 15 17 17 23 23 22 22 21 23 24 37 40 41 46 51 54 46 48
50 49 48 40 37 36 31 25 29 28 24 16 14 16 16 17 13 13 15 12 16 14 12 12 12 17 16 17 19 19 22 22 27 21 20 26 28 34 31 39 49 50 49 46 47
49 37 29 39 41 34 24 26 26 25 25 16 16 13 15 14 9 12 13 10 14 15 19 15 18 18 15 17 19 22 22 19 20 19 17 22 27 28 30 30 29 34 33 45 46
46 38 29 23 39 33 20 26 22 19 21 22 22 17 13 12 9 14 14 13 13 17 19 20 23 16 15 18 19 21 22 19 19 27 24 20 23 24 38 33 31 30 31 38 48
46 35 24 23 39 25 16 22 22 18 22 25 26 25 13 11 10 12 15 13 13 16 19 18 22 20 18 19 18 19 21 21 18 20 20 20 26 35 40 36 31 32 35 36 39
36 23 28 34 32 24 16 22 26 17 24 24 25 25 26 24 12 10 15 17 14 15 17 18 18 22 19 18 17 17 22 26 25 31 28 28 24 30 31 30 30 34 34 39 44
36 27 27 34 25 21 22 21 21 17 23 24 21 23 25 26 24 13 12 11 16 17 22 21 22 22 22 17 19 19 21 20 21 23 35 26 26 38 31 32 35 35 39 51 53
39 25 21 29 27 24 22 24 22 18 20 26 23 23 21 25 26 22 13 10 14 16 51 32 18 28 15 24 22 23 19 17 17 27 27 26 31 34 35 38 45 43 45 47 56
41 30 35 29 21 24 25 28 28 20 22 28 28 25 25 28 25 22 17 13 11 38 24 22 34 22 17 15 15 19 19 18 20 25 26 29 34 40 43 39 40 40 43 45 52
38 33 33 32 36 36 30 29 32 27 25 26 26 24 24 28 33 37 36 31 22 22 21 24 31 26 22 18 16 15 15 20 20 19 19 22 30 39 40 42 39 37 38 45 48
38 36 36 35 31 29 30 31 32 31 26 27 28 32 30 37 40 38 35 35 34 33 30 35 27 34 27 22 22 21 19 16 20 24 24 29 37 40 40 37 37 42 42 46 48

GFSSW_sfc_dewp_003.txt.gz
Dewpoint
57 58 58 57 57 57 58 58 59 59 59 59 58 58 58 60 58 55 45 43 51 65 71 43 38 40 41 43 45 52 49 44 50 46 42 40 40 43 46 51 55 56 59 60 61
57 57 57 57 57 57 57 58 58 58 58 58 58 58 59 59 52 41 52 68 66 72 39 28 29 30 31 36 39 49 47 35 48 45 48 50 50 53 49 51 54 57 58 59 61
55 55 56 56 57 57 57 57 57 57 57 58 59 59 59 58 49 34 67 64 69 69 37 24 26 28 28 30 33 47 40 40 43 43 49 49 51 55 56 48 54 57 57 57 61
55 55 55 56 56 56 56 57 56 56 57 58 59 59 59 53 30 30 71 70 68 50 34 27 31 29 27 29 27 32 32 40 44 48 49 50 51 46 54 52 57 58 58 59 59
54 55 55 55 55 56 56 57 56 56 57 58 59 59 54 44 35 44 69 70 51 34 24 27 31 28 24 31 21 31 31 36 37 41 47 50 49 50 48 50 57 58 58 59 59
55 55 55 56 56 56 56 56 56 55 57 59 59 57 50 34 31 41 40 41 26 24 25 27 30 23 23 29 20 32 30 36 35 40 45 47 48 49 50 52 55 56 58 58 59
55 55 55 55 55 55 56 55 55 55 56 59 58 53 46 31 30 42 31 26 25 23 24 27 29 21 21 26 30 33 31 31 35 39 46 48 49 52 53 52 53 55 56 57 58
55 55 55 55 55 55 55 55 54 55 57 59 58 54 43 36 37 33 28 24 21 22 24 26 25 19 28 25 28 29 30 29 35 37 44 48 48 52 54 53 54 54 55 56 58
55 54 54 54 55 54 54 54 55 56 58 58 56 53 47 47 38 32 30 21 14 13 19 21 20 25 29 24 22 28 29 34 36 35 34 44 50 52 54 55 55 55 55 57 59
54 54 54 54 54 53 53 53 54 58 59 56 50 45 46 42 30 28 33 26 15 14 16 18 26 29 26 22 21 27 28 36 36 34 33 42 48 51 53 54 55 56 57 59 60
54 54 54 53 53 53 51 42 46 53 53 47 41 37 33 37 34 24 29 27 11 14 17 20 28 28 25 21 20 29 28 35 37 34 35 40 48 49 50 51 51 54 56 57 58
53 53 53 53 52 52 50 38 28 33 30 32 35 40 38 37 29 25 27 23 13 18 17 21 28 29 27 23 22 22 34 37 37 36 38 39 44 46 46 49 51 53 55 56 57
53 53 53 53 52 50 42 36 38 37 33 32 34 33 30 32 26 21 21 19 12 15 15 19 28 29 25 19 19 20 21 32 37 39 38 41 41 48 47 48 50 53 54 55 57
53 53 53 51 44 36 23 30 32 31 29 29 29 31 28 28 22 21 16 15 14 12 14 21 24 23 19 18 19 18 21 19 30 37 36 41 39 46 46 44 47 51 52 53 56
53 53 52 51 45 39 28 36 34 33 30 28 25 24 26 25 24 20 14 14 12 13 17 21 21 20 17 17 19 16 20 17 18 29 28 33 31 41 45 43 43 47 51 52 55
53 52 51 44 46 44 41 31 33 30 30 24 18 21 23 22 24 22 15 16 17 16 17 19 20 17 18 19 19 20 19 19 16 18 20 24 29 43 43 44 42 44 47 50 53
51 51 50 46 31 25 33 30 31 27 27 23 15 16 18 22 23 22 14 14 13 11 16 17 15 14 13 15 17 17 27 24 24 21 21 21 21 41 43 43 43 43 46 48 51
50 49 49 45 45 40 37 27 29 27 25 25 22 16 17 20 22 19 14 14 13 12 17 17 13 13 13 13 15 17 19 28 24 24 23 24 25 33 43 45 46 44 44 45 50
49 44 36 42 42 36 33 24 26 27 24 21 23 21 17 19 20 16 17 14 11 11 11 15 16 17 15 16 19 20 23 23 23 25 23 26 31 38 44 44 46 46 45 43 47
47 44 38 30 42 37 32 26 26 24 23 21 18 21 24 17 17 13 14 16 14 13 14 17 19 17 16 16 16 23 23 24 24 24 23 23 33 33 36 38 44 47 45 46 46
46 40 34 32 41 36 21 19 21 21 22 21 21 19 25 26 16 12 12 16 14 11 14 15 18 19 17 17 19 23 22 28 25 25 20 22 30 41 40 38 34 32 35 43 47
40 31 32 39 37 34 22 17 24 18 21 21 20 21 25 28 28 15 10 14 13 10 10 14 22 21 16 21 20 20 20 30 29 27 29 30 31 36 39 36 38 40 41 41 46
40 33 31 36 32 30 28 18 15 16 20 21 19 23 24 26 29 28 30 16 14 11 11 17 18 19 25 17 18 17 20 24 28 25 26 30 30 39 35 34 39 39 43 45 44
41 36 34 33 33 30 28 26 22 20 21 22 21 28 28 28 26 27 27 26 16 12 43 36 21 26 21 25 20 20 20 23 20 23 23 29 32 34 39 44 41 42 42 49 50
42 36 36 33 31 32 35 34 24 24 25 29 22 28 28 27 28 28 27 34 30 34 34 24 28 26 22 20 18 21 21 20 21 23 27 25 37 37 38 38 40 39 38 42 52
41 36 34 30 34 33 34 34 30 23 29 35 32 27 28 32 39 39 38 39 38 31 26 27 32 28 26 24 18 17 19 24 24 21 20 22 26 41 36 43 43 39 40 41 45
42 43 37 32 28 26 29 28 29 23 31 39 35 36 32 39 39 38 37 36 33 37 32 31 33 29 22 26 25 25 25 24 23 23 23 23 33 43 43 44 42 40 38 41 45

GFSSW_sfc_dewp_006.txt.gz
Dewpoint
56 56 56 56 57 57 57 58 58 58 58 58 58 59 58 59 59 56 40 41 46 71 68 41 43 42 46 43 50 53 49 45 45 43 43 41 49 55 56 61 59 59 62 65 66
55 56 56 56 56 57 57 57 58 57 57 58 58 59 59 60 54 46 53 65 67 72 41 34 24 30 31 36 41 46 46 45 47 48 45 44 46 50 56 57 58 60 62 65 66
55 55 56 56 56 56 56 57 57 57 57 58 58 59 60 58 47 35 68 63 70 68 34 29 25 27 28 30 35 44 42 44 46 47 50 51 52 55 55 56 58 58 60 65 66
54 54 55 55 55 56 56 56 56 56 57 57 58 60 59 54 9 30 70 72 72 50 37 29 28 31 29 29 29 42 42 44 46 52 49 50 51 47 55 56 59 59 61 64 65
54 55 55 55 55 55 56 56 56 56 56 57 58 59 54 43 34 41 72 72 57 38 31 26 30 34 30 28 27 37 41 44 47 48 49 50 48 50 55 57 58 58 60 61 63
55 55 56 56 55 56 56 56 56 55 56 57 59 58 48 27 25 34 47 45 35 27 23 25 27 32 27 23 26 39 44 47 48 49 49 46 47 47 56 58 57 57 59 59 60
55 55 55 55 55 55 56 55 54 55 55 56 59 55 49 24 26 36 36 33 27 23 20 25 26 28 26 20 26 40 42 43 47 48 50 52 51 51 54 57 57 58 58 59 59
54 55 55 55 55 55 55 54 54 55 56 56 58 55 37 40 41 35 32 28 25 25 22 21 30 27 22 23 24 32 33 34 41 48 50 50 50 51 55 56 56 57 58 58 59
54 54 54 54 54 54 54 54 54 57 56 59 54 52 41 52 41 36 33 26 23 20 16 17 24 20 22 26 22 28 28 36 37 42 47 50 50 52 52 53 54 55 56 57 58
54 53 53 54 54 53 53 53 53 58 58 57 53 43 38 36 39 33 32 27 17 17 15 15 18 26 28 24 20 26 33 34 35 36 43 49 50 52 53 53 53 54 55 56 57
53 53 53 53 53 52 50 45 30 40 53 43 39 37 33 36 38 29 28 29 16 13 11 16 18 20 26 26 24 27 35 34 35 34 48 49 50 52 53 54 54 55 57 57 58
52 53 53 53 52 52 50 36 23 33 32 38 43 42 39 40 40 38 26 27 16 10 16 16 20 25 29 30 26 24 30 35 38 36 38 49 50 51 53 54 55 56 58 58 61
52 53 53 52 51 50 43 38 37 33 33 31 32 31 31 34 34 32 24 26 17 14 16 16 18 28 29 28 27 22 32 34 34 37 41 47 47 49 52 53 53 55 58 58 61
52 53 52 51 36 43 31 25 34 31 27 28 28 30 31 33 29 31 25 24 14 12 16 16 17 22 28 27 26 18 24 33 37 36 36 41 40 45 47 48 49 52 55 57 60
53 52 51 50 45 44 28 36 32 33 27 29 29 32 30 28 27 21 22 17 16 13 14 15 18 19 21 25 23 19 21 21 38 35 35 40 39 42 45 43 44 50 54 55 59
52 52 51 46 46 45 43 40 32 27 27 31 23 25 23 25 25 23 16 16 17 16 16 14 21 22 22 22 20 20 18 20 25 27 28 35 34 36 43 42 42 45 53 53 57
51 50 49 46 37 34 35 28 27 25 29 25 18 22 20 22 23 23 13 12 12 13 13 17 15 18 21 17 18 17 15 14 15 17 16 20 36 34 44 42 41 44 52 53 56
50 49 49 47 47 44 36 21 26 27 23 25 24 21 21 22 21 23 16 12 13 14 13 12 12 16 17 14 13 15 15 18 15 21 18 23 20 21 43 44 43 44 51 52 55
50 46 43 45 45 39 27 19 21 27 27 24 23 20 22 20 23 23 19 13 13 13 11 15 15 18 16 15 14 14 18 22 22 32 24 24 27 38 42 43 42 43 47 49 53
47 43 43 39 44 34 26 20 21 25 23 23 23 23 20 20 20 22 21 16 14 14 12 13 11 15 15 17 18 14 19 19 22 18 18 23 26 31 43 43 44 44 44 45 51
42 38 38 42 38 30 18 19 16 14 14 21 21 20 19 19 18 20 19 16 15 14 13 11 16 12 20 16 14 22 21 21 22 23 19 19 24 34 42 44 45 46 45 46 49
41 29 34 39 33 32 26 19 23 9 14 15 20 19 20 21 18 21 17 15 17 14 13 13 14 11 11 18 17 22 21 23 22 18 24 23 26 37 39 40 44 45 47 47 46
38 38 35 33 30 30 31 27 20 15 10 14 17 18 20 20 24 26 27 27 20 15 13 14 14 12 13 16 19 17 20 27 24 25 23 24 28 37 34 37 37 37 40 42 48
40 36 35 33 29 32 30 30 28 29 24 23 20 19 21 23 27 26 24 25 27 17 41 31 15 12 11 18 20 17 19 24 23 22 23 26 28 33 37 37 40 40 41 45 49
41 39 33 30 30 26 30 32 32 31 32 30 24 31 32 25 25 30 37 36 35 40 32 15 14 23 19 17 23 17 17 23 21 21 20 21 28 32 40 39 40 41 44 45 45
41 37 37 32 29 31 30 31 27 26 29 28 34 35 34 31 36 38 38 36 33 33 26 22 18 22 16 21 17 14 20 21 23 24 29 25 33 36 40 42 41 40 41 42 46
41 42 40 34 32 31 30 31 26 24 33 39 38 36 36 33 33 36 37 36 36 32 29 25 23 22 17 22 23 21 24 22 25 36 27 23 25 39 40 40 40 40 39 40 41

GFSSW_sfc_dewp_009.txt.gz
Dewpoint
55 55 55 56 56 57 57 57 57 57 57 58 58 58 59 60 59 55 39 41 45 69 65 46 51 45 46 42 50 53 45 41 44 43 44 53 55 61 62 61 59 61 63 64 68
55 55 55 55 55 56 56 57 57 57 57 57 58 58 59 60 55 47 52 65 68 70 42 36 27 28 30 40 47 48 43 43 46 45 45 49 55 57 59 59 60 61 64 66 68
54 54 55 55 55 55 56 56 56 56 56 57 57 58 60 59 43 31 63 65 68 68 36 31 25 25 28 30 39 46 44 46 46 48 43 48 52 55 59 57 59 61 63 65 66
54 54 54 55 55 55 55 55 56 56 56 56 57 58 60 54 13 20 70 73 69 60 35 28 25 25 29 28 30 36 44 45 46 52 48 49 52 56 57 58 60 63 65 65 66
54 54 54 55 55 55 55 55 55 55 55 56 57 59 52 37 29 41 70 71 64 44 33 24 27 31 30 28 27 32 40 44 47 50 50 48 50 53 55 58 61 64 65 65 66
54 55 55 55 54 54 55 55 55 55 55 56 57 59 46 24 23 35 48 59 50 37 31 25 22 31 31 25 25 39 44 46 48 48 49 50 54 55 57 59 59 63 65 65 66
54 54 55 55 55 54 54 55 54 54 55 56 56 56 48 28 27 30 40 41 32 34 22 25 25 26 29 26 26 44 45 47 49 50 46 51 50 55 57 58 59 62 63 64 64
54 54 54 54 54 55 54 54 54 55 56 56 58 54 34 36 43 41 32 28 26 26 23 20 28 26 26 26 38 42 41 44 47 50 51 51 50 56 57 56 57 58 60 61 63
54 53 53 54 54 53 53 53 54 58 57 57 54 50 38 47 45 44 32 27 24 24 25 21 22 22 21 25 28 30 40 39 44 47 50 51 50 55 57 56 56 57 58 58 59
53 53 53 53 53 53 53 53 52 56 57 56 53 44 35 28 39 35 35 28 21 17 17 14 17 18 26 25 23 36 34 42 43 47 47 50 50 55 56 56 56 57 57 58 58
53 53 53 53 53 52 50 41 27 34 52 41 35 36 34 36 38 36 32 26 17 13 12 16 14 17 17 26 25 28 34 41 42 43 49 49 50 52 55 55 55 56 57 57 58
53 53 53 53 52 51 48 29 26 33 29 32 34 35 38 39 36 33 33 27 18 14 13 13 15 17 20 29 25 22 27 35 37 45 47 49 50 50 52 53 54 54 55 56 57
53 53 53 52 51 47 38 31 34 31 30 30 31 33 34 39 35 35 31 26 23 15 13 10 12 21 26 28 28 24 24 30 35 40 49 49 49 51 53 53 53 54 55 56 57
53 53 52 50 35 44 37 30 34 31 27 28 28 27 30 33 32 34 30 25 22 21 16 14 15 18 27 27 28 26 26 29 35 36 40 47 43 46 51 52 54 55 56 57 59
53 52 51 50 45 43 28 36 34 33 24 26 29 31 31 27 27 28 28 25 21 12 15 14 16 17 21 25 27 25 25 23 33 35 40 41 40 44 49 49 51 53 54 57 59
52 52 50 46 45 45 43 40 32 24 23 28 28 26 27 26 26 24 23 21 24 15 15 12 17 18 18 20 25 28 21 20 29 33 34 41 36 37 46 48 50 51 52 57 58
51 50 49 46 37 38 35 28 22 21 25 23 22 22 21 24 22 23 17 16 17 15 13 18 14 16 23 21 23 19 16 16 24 30 32 33 36 36 44 48 49 49 50 55 57
49 49 48 47 46 44 31 19 23 23 23 24 23 21 21 22 23 24 15 18 16 14 14 12 10 15 17 19 19 17 16 17 12 20 23 27 35 37 39 45 47 48 48 53 55
49 44 44 44 46 40 24 17 20 25 28 25 21 21 21 21 20 23 19 14 15 13 11 13 12 16 18 16 18 17 15 16 15 29 22 23 26 29 39 41 44 44 44 52 54
46 42 42 44 44 32 22 17 16 25 22 23 23 24 22 20 19 19 23 21 12 14 13 13 10 14 16 17 17 14 18 17 19 17 20 21 23 26 33 41 44 43 44 50 53
40 34 29 45 37 26 15 14 13 14 8 17 23 21 21 19 19 21 19 21 21 16 14 13 12 12 15 16 14 21 18 19 20 22 17 18 23 32 32 42 43 43 44 48 52
38 13 34 39 31 28 23 22 23 9 11 12 17 19 18 20 20 19 20 23 23 18 13 13 13 10 10 16 18 15 18 18 16 18 23 21 22 30 36 44 44 44 44 47 50
38 36 40 32 29 29 31 28 26 22 21 13 10 17 20 18 20 22 22 25 27 18 15 15 11 9 10 13 19 17 21 21 22 25 26 23 25 35 37 41 45 46 47 47 47
39 33 35 33 31 28 28 27 28 32 31 30 21 24 24 24 28 24 26 27 28 19 44 29 13 10 9 11 16 17 20 25 21 21 22 25 24 33 34 37 39 43 46 48 47
39 38 35 30 30 27 28 30 30 30 30 31 29 25 32 31 30 28 27 35 37 45 40 15 12 14 11 11 17 17 18 23 21 20 20 22 26 32 35 36 39 40 42 44 47
41 38 40 38 32 28 31 28 30 27 26 28 27 29 34 32 30 34 37 35 34 35 32 20 14 19 14 16 14 14 16 19 23 25 23 23 27 32 35 40 40 38 40 43 46
40 41 41 39 32 31 30 30 30 29 28 25 34 35 34 33 33 33 33 34 37 37 32 21 18 17 12 18 20 20 19 21 27 28 26 24 26 37 40 40 40 40 41 43 46